Regional Weather Roundup
Issued by NWS

Home | Current Version | Previous Version | Text Only | Print | Product List | Glossary On
Versions: 1 2 3 4 5 6 7 8 9 10 11 12 13 14 15 16 17 18 19 20 21 22 23 24 25 26 27 28 29 30 31 32 33 34 35 36 37 38 39 40 41 42 43 44 45 46 47 48 49 50
000
ASUS43 KMKX 300100
RWRWI

WISCONSIN REGIONAL WEATHER ROUNDUP
NATIONAL WEATHER SERVICE MILWAUKEE/SULLIVAN WI
800 PM CDT WED JUL 29 2015

NOTE: "FAIR" INDICATES FEW OR NO CLOUDS BELOW 12,000 FEET WITH NO
SIGNIFICANT WEATHER AND/OR OBSTRUCTIONS TO VISIBILITY.

WIZ001-002-006>008-014>016-023>028-300200-
NORTHWEST WISCONSIN

CITY           SKY/WX    TMP DP  RH WIND       PRES   REMARKS
SUPERIOR ARPT  PTCLDY    75  55  50 W14       29.81R
ASHLAND        PTCLDY    75  56  51 SW8       29.81R
HAYWARD        CLEAR     75  53  46 W8        29.87R
SIREN          PTCLDY    77  53  42 W8G17     29.89R
CUMBERLAND     CLEAR     73  52  46 W10G20    29.91R
RICE LAKE      CLEAR     75  53  45 W9G18     29.92R
CHETEK         CLEAR     75  56  51 W6        29.91R
LADYSMITH      CLEAR     76  54  46 W14       29.91R
EAU CLAIRE     CLEAR     76  56  49 W9        29.91S
MENOMONIE      CLEAR     78  54  42 W13G18    29.92S
NEW RICHMOND   PTCLDY    75  54  46 W10       29.93R
OSCEOLA        PTCLDY    77  53  44 W10       29.94S
$$

WIZ003>005-009-010-017-018-300200-
NORTH CENTRAL WISCONSIN

CITY           SKY/WX    TMP DP  RH WIND       PRES   REMARKS
MANITOWISH WTR CLOUDY    72  55  56 W6        29.86S
ARBOR VITAE    CLOUDY    72  54  52 W9        29.87R
WOODRUFF       CLOUDY    72  54  52 W9        29.87R
RHINELANDER    CLOUDY    74  52  46 W13G20    29.89R
EAGLE RIVER    CLOUDY    73  50  44 W14       29.86R
LAND O LAKES   CLOUDY    73  53  49 W8G16     29.86R
PHILLIPS       PTCLDY    73  55  52 W7        29.88R
TOMAHAWK       PTCLDY    73  54  51 W6        29.90R
MEDFORD        CLEAR     73  55  53 W10G18    29.92R
MERRILL        NOT AVBL
$$

WIZ029-030-035-036-043>047-300200-
CENTRAL WISCONSIN

CITY           SKY/WX    TMP DP  RH WIND       PRES   REMARKS
WAUSAU         CLEAR     76  53  44 W13G23    29.89S
MOSINEE        PTCLDY    73  55  53 W9        29.92S
MARSHFIELD     CLEAR     74  53  48 W10       29.93R
STEVENS POINT  CLEAR     76  53  44 W9G20     29.93R
WAUPACA        PTCLDY    81  51  35 W10G18    29.92R HX  80
WAUTOMA        NOT AVBL
WISC RAPIDS    CLEAR     77  51  40 W8        29.94S
CAMP DOUGLAS   NOT AVBL
$$

WIZ011>013-019>022-031-037>040-048>050-300200-
NORTHEAST WISCONSIN

CITY           SKY/WX    TMP DP  RH WIND       PRES   REMARKS
ANTIGO         PTCLDY    74  53  49 W15       29.90S
SHAWANO        PTCLDY    79  53  40 W10       29.89R
OCONTO         CLOUDY    79  56  45 W5        29.86R
STURGEON BAY   CLOUDY    77  57  50 W9        29.88S
GREEN BAY      PTCLDY    77  54  44 W10       29.88S
MANITOWOC      NOT AVBL
APPLETON       PTCLDY    77  48  36 W17G23    29.91
CLINTONVILLE   PTCLDY    79  50  36 W9        29.89S
OSHKOSH        CLEAR     78  53  41 W5        29.91R
$$

WIZ032>034-041-042-053>061-300200-
SOUTHWEST WISCONSIN

CITY           SKY/WX    TMP DP  RH WIND       PRES   REMARKS
LA CROSSE      CLEAR     79  54  41 W10       29.96R
SPARTA         CLEAR     78  49  36 W8G16     29.96S
VIROQUA        CLEAR     75  54  46 W7        30.00S
BOSCOBEL       CLEAR     79  54  41 W8        29.99R
PRAIRIE DU CHI CLEAR     80  48  33 W10G21    29.99S
PLATTEVILLE    CLEAR     77  55  45 W9        30.01S
$$

WIZ056-057-062-063-064-067-068-300200-
SOUTH CENTRAL WISCONSIN

CITY           SKY/WX    TMP DP  RH WIND       PRES   REMARKS
REEDSBURG      CLEAR     78  54  42 W10G20    29.96R
BARABOO/DELLS  CLEAR     79  48  34 W12       29.96R
LONE ROCK      NOT AVBL
MINERAL POINT  CLEAR     77  50  38 W8        30.01R
MADISON        CLEAR     78  53  41 CALM      29.96R
MIDDLETON      CLEAR     78  50  36 W9        29.97S
WATERTOWN      CLEAR     77  57  50 W7        29.95R
MONROE         CLEAR     77  52  41 W14G21    30.00R
JANESVILLE     CLEAR     79  54  41 W12       29.97S
$$

WIZ051-052-058>065-066-070>072-300200-
SOUTHEAST WISCONSIN

CITY           SKY/WX    TMP DP  RH WIND       PRES   REMARKS
MILWAUKEE      PTCLDY    82  51  34 W12       29.93R HX  81
WAUKESHA       CLEAR     75  52  43 W12       29.96R
MILWAUKEE/TIMM NOT AVBL
RACINE         CLEAR     79  53  40 W8        29.96R
BURLINGTON     CLEAR     76  51  40 W8        29.96S
KENOSHA        CLEAR     76  55  48 W10       29.96R
FOND DU LAC    CLEAR     78  54  43 W7        29.92R
SHEBOYGAN      CLEAR     77  54  44 W8        29.90R
WEST BEND      CLEAR     79  48  34 W12       29.92S
JUNEAU         CLEAR     76  56  50 W8        29.95S
$$

LSZ147-162-300200-
LAKE SUPERIOR

STATION/POSITION TIME  TEMP    WIND        PRES    WAVE
                       AIR SEA DIR/SP/G            HT/PER
                 (UTC) (F)     (DEG/KT/KT) (MB)    (FT/S)
W MID LAKE BUOY  2350   62 55  240/ 14/ 16 1006.7S   4/ 6
DEVILS ISLAND    0000   69     240/ 18/ 20 1007.3F
PORT WING        0000   75     250/ 16/ 19 1008.8S
SAXON HARBOR     0000   76                 1008.8S
$$

LMZ867-665-643>646-300200-
LAKE MICHIGAN

STATION/POSITION TIME  TEMP    WIND        PRES    WAVE
                       AIR SEA DIR/SP/G            HT/PER
                 (UTC) (F)     (DEG/KT/KT) (MB)    (FT/S)
CHAMBERS ISLAND  0000   77     290/  3/  9 1010.2R
S GREEN BAY BUOY 0000   71 67  280/ 10/ 14 1012.4
N MID LAKE BUOY  2350   74 70  230/ 12/ 16 1008.7R   3/ 4
NORTHPORT PIER   0000   78     280/  8/ 14 1009.8R
SISTER BAY       0044   77     300/ 17/ 19   N/A
ALGOMA LAKESHORE 0042          330/  5/ 10   N/A
KEWAUNEE LAKESHO 0000   81                   N/A
SHEBOYGAN LAKESH 0000   83     260/ 14/ 16 1011.9R
PORT WASHINGTON  0000   84     270/  9/ 15 1013.2R
ATWATER BUOY     0000   79     250/ 17/ 21 1014.5R
MILWAUKEE LAKESH 0000   83     270/ 15/ 21   N/A
KENOSHA   LAKESH 0000   83     260/ 16/ 19 1013.2S
$$

TC  - TEMPERATURE IN CELSIUS
VSB - VISIBILITY IN STATUTE MILES
WCI - WIND CHILL INDEX
HX  - HEAT INDEX




USA.gov is the U.S. government's official web portal to all federal, state and local government web resources and services.